Powrót do katalogu

IUS R/B(2)

AktywnyGEO
NORAD 22316·ROCKET BODY·🇺🇸 United States

Wystrzelony Jan 13, 1993 z Cape Canaveral Space Force Station

Loading…

TLE

ŚwieżeSource: Space-Track

Epoka: Aug 28, 2026, 05:42 UTC

1 22316U 93003D   26240.23799617 -.00000224  00000-0  00000+0 0  9995
2 22316  11.8165 344.1055 0067667 127.0689 231.0290  1.00102724127908

Śledź IUS R/B(2) w czasie rzeczywistym z AllMySat

Download on the App Store